Beaumont, TX

9:54 PM CST on November 24, 2017 (GMT -0600)
Southeast Texas Regional

Weather History for KBPT - September, 2013

Change the Weather History Date:

Thursday, September 19, 2013

  Actual Average Record
Temperature  
Mean Temperature 86 °F 78 °F  
Max Temperature 93 °F 88 °F 97 °F (1915)
Min Temperature 78 °F 69 °F 51 °F (1981)
Degree Days  
Heating Degree Days 0 0  
Month to date heating degree days 0 0  
Since 1 July heating degree days 0 0  
Cooling Degree Days 21 13  
Month to date cooling degree days 375 292  
Year to date cooling degree days 2565 2459  
Growing Degree Days 36 (Base 50)    
Moisture  
Dew Point 76 °F    
Average Humidity 71    
Maximum Humidity 85    
Minimum Humidity 56    
Precipitation  
Precipitation 0.58 in 0.19 in 2.20 in (1979)
Month to date precipitation 0.87 3.97  
Year to date precipitation 36.08 43.20  
Snow  
Snow 0.00 in 0.00 in 0.00 in ()
Month to date snowfall 0.0 0.0  
Since 1 July snowfall 0.0 0.0  
Since 1 September snowfall 0.0 0.0  
Snow Depth 0.00 in    
Sea Level Pressure  
Sea Level Pressure 29.92 in    
Wind  
Wind Speed 11 mph (ESE)    
Max Wind Speed 23 mph    
Max Gust Speed 26 mph    
Visibility 9 miles    
Events Rain , Thunderstorm    
T = Trace of Precipitation, MM = Missing Value Source: NWS Daily Summary

Daily Weather History Graph

Daily Weather History Graph

Search for Another Location

Airport or City:

Trip Planner

Search our weather history database for the weather conditions in past years. The results will help you decide how hot, cold, wet, or windy it might be!

Date:

Astronomy

Sep. 19, 2013 Rise Set
Actual Time 7:02 AM CDT 7:16 PM CDT
Civil Twilight 6:39 AM CDT 7:39 PM CDT
Nautical Twilight 6:11 AM CDT 8:07 PM CDT
Astronomical Twilight 5:42 AM CDT 8:35 PM CDT
Moon 7:20 PM CDT (9/19) 7:09 AM CDT (9/19)
Length of Visible Light 13h 00m
Length of Day
12h 13m
Full, 100% of the Moon is Illuminated
Sep 19
Full
Sep 26
Last Quarter
Oct 4
New
Oct 11
First Quarter
Oct 18
Full

Hourly Weather History & Observations

Time (CDT) Temp. Heat Index Dew Point Humidity Pressure Visibility Wind Dir Wind Speed Gust Speed Precip Events Conditions
12:53 AM 82.0 °F 88.6 °F 75.0 °F 79% 29.95 in 10.0 mi East 10.4 mph - N/A   Partly Cloudy
1:53 AM 82.0 °F 88.6 °F 75.0 °F 79% 29.94 in 10.0 mi East 9.2 mph - N/A   Partly Cloudy
2:49 AM 82.4 °F 89.5 °F 75.2 °F 79% 29.94 in 10.0 mi ESE 10.4 mph - 0.00 in Rain Light Rain
2:53 AM 81.0 °F 87.3 °F 75.9 °F 85% 29.94 in 10.0 mi ESE 10.4 mph - 0.00 in Rain Light Rain
3:10 AM 80.6 °F 86.2 °F 75.2 °F 84% 29.94 in 10.0 mi East 10.4 mph - 0.00 in   Mostly Cloudy
3:53 AM 80.1 °F 85.1 °F 75.0 °F 85% 29.93 in 10.0 mi East 8.1 mph - 0.00 in   Clear
4:53 AM 79.0 °F - 73.9 °F 84% 29.91 in 10.0 mi East 9.2 mph - 0.00 in Rain Light Rain
5:53 AM 80.1 °F 85.4 °F 75.9 °F 87% 29.92 in 10.0 mi East 8.1 mph - 0.00 in Rain Light Rain
6:40 AM 78.8 °F - 75.2 °F 89% 29.93 in 10.0 mi ENE 9.2 mph - 0.00 in   Mostly Cloudy
6:53 AM 79.0 °F - 75.9 °F 90% 29.93 in 10.0 mi ENE 9.2 mph - 0.00 in   Overcast
7:17 AM 78.8 °F - 75.2 °F 89% 29.93 in 9.0 mi East 9.2 mph - N/A   Mostly Cloudy
7:32 AM 78.8 °F - 75.2 °F 89% 29.94 in 10.0 mi East 10.4 mph - N/A   Mostly Cloudy
7:48 AM 80.6 °F 86.2 °F 75.2 °F 84% 29.94 in 6.0 mi East 11.5 mph - 0.00 in Rain Light Rain
7:53 AM 80.1 °F 85.4 °F 75.9 °F 87% 29.94 in 6.0 mi East 10.4 mph - 0.00 in Rain Light Rain
8:43 AM 82.4 °F 90.9 °F 77.0 °F 84% 29.95 in 10.0 mi East 10.4 mph - 0.00 in   Scattered Clouds
8:53 AM 82.0 °F 89.4 °F 75.9 °F 82% 29.96 in 10.0 mi East 11.5 mph - 0.00 in   Mostly Cloudy
9:13 AM 84.2 °F 94.1 °F 77.0 °F 79% 29.96 in 10.0 mi East 13.8 mph - N/A   Mostly Cloudy
9:53 AM 84.9 °F 94.1 °F 75.9 °F 74% 29.97 in 10.0 mi East 12.7 mph - N/A   Scattered Clouds
10:45 AM 87.8 °F 97.6 °F 75.2 °F 66% 29.97 in 10.0 mi ESE 11.5 mph - N/A   Mostly Cloudy
10:53 AM 90.0 °F 101.3 °F 75.9 °F 63% 29.97 in 10.0 mi ESE 10.4 mph - N/A   Mostly Cloudy
11:11 AM 89.6 °F 99.8 °F 75.2 °F 62% 29.97 in 10.0 mi SE 16.1 mph 21.9 mph N/A   Mostly Cloudy
11:53 AM 89.1 °F 98.0 °F 73.9 °F 61% 29.96 in 10.0 mi ESE 17.3 mph 20.7 mph N/A   Mostly Cloudy
12:53 PM 91.0 °F 99.3 °F 73.0 °F 55% 29.95 in 10.0 mi SE 16.1 mph - N/A   Scattered Clouds
1:53 PM 88.0 °F 101.3 °F 78.1 °F 72% 29.92 in 10.0 mi SE 15.0 mph - 0.05 in   Mostly Cloudy
2:04 PM 87.8 °F 97.6 °F 75.2 °F 66% 29.92 in 10.0 mi ESE 13.8 mph 21.9 mph N/A   Mostly Cloudy
2:53 PM 87.1 °F 97.3 °F 75.9 °F 69% 29.90 in 10.0 mi ESE 12.7 mph - N/A   Mostly Cloudy
3:00 PM 86.0 °F 95.1 °F 75.2 °F 70% 29.90 in 10.0 mi SE 15.0 mph - N/A   Clear
3:53 PM 81.0 °F 86.7 °F 75.0 °F 82% 29.90 in 6.0 mi ESE 12.7 mph - 0.00 in Rain Light Rain
4:53 PM 86.0 °F 96.0 °F 75.9 °F 72% 29.88 in 10.0 mi SE 13.8 mph - 0.00 in   Mostly Cloudy
5:01 PM 84.2 °F 92.3 °F 75.2 °F 74% 29.88 in 10.0 mi ESE 15.0 mph - N/A   Mostly Cloudy
5:26 PM 84.2 °F 92.3 °F 75.2 °F 74% 29.88 in 10.0 mi SE 12.7 mph - N/A   Mostly Cloudy
5:53 PM 84.9 °F 93.3 °F 75.0 °F 72% 29.88 in 10.0 mi SE 16.1 mph - N/A   Mostly Cloudy
6:38 PM 84.2 °F 92.3 °F 75.2 °F 74% 29.88 in 10.0 mi SE 10.4 mph - N/A   Mostly Cloudy
6:46 PM 84.2 °F 92.3 °F 75.2 °F 74% 29.88 in 10.0 mi SE 10.4 mph - N/A   Mostly Cloudy
6:53 PM 82.9 °F 90.8 °F 75.9 °F 79% 29.89 in 10.0 mi SE 11.5 mph - N/A   Mostly Cloudy
7:53 PM 82.9 °F 91.8 °F 77.0 °F 82% 29.89 in 10.0 mi SE 9.2 mph - N/A   Mostly Cloudy
8:25 PM 80.6 °F 86.2 °F 75.2 °F 84% 29.91 in 2.5 mi ESE 18.4 mph 26.5 mph 0.00 in Rain Heavy Rain
8:37 PM 78.8 °F - 75.2 °F 89% 29.91 in 6.0 mi SE 6.9 mph - 0.14 in Rain Light Rain
8:53 PM 80.1 °F 85.4 °F 75.9 °F 87% 29.91 in 10.0 mi SSE 6.9 mph - 0.14 in   Overcast
9:48 PM 78.8 °F - 77.0 °F 94% 29.92 in 4.0 mi Variable 5.8 mph - 0.07 in Rain Light Rain
9:53 PM 80.1 °F 85.8 °F 77.0 °F 90% 29.92 in 4.0 mi SSW 6.9 mph - 0.08 in Rain Rain
10:16 PM 80.6 °F 87.1 °F 77.0 °F 89% 29.92 in 10.0 mi SE 5.8 mph - 0.07 in Rain , Thunderstorm Light Thunderstorms and Rain
10:38 PM 80.6 °F 87.1 °F 77.0 °F 89% 29.92 in 10.0 mi SE 5.8 mph - 0.07 in   Mostly Cloudy
10:53 PM 81.0 °F 87.9 °F 77.0 °F 88% 29.92 in 10.0 mi SSE 8.1 mph - 0.07 in   Overcast
11:43 PM 78.8 °F - 75.2 °F 89% 29.93 in 2.5 mi South 11.5 mph - 0.13 in Rain , Thunderstorm Heavy Rain
11:53 PM 78.1 °F - 75.9 °F 93% 29.92 in 2.5 mi SSE 3.5 mph - 0.22 in Rain , Thunderstorm Heavy Thunderstorms and Rain